User: anonymous   Login
Location: Caracas
(10.5033°N, 66.8422°W)
Time: 01:17:24
(UTC-04:00)
Language:

ISS - Orbit

View from above orbital plane
View from above orbital plane
View from above satellite
View from above satellite

Ground track
Ground track

The orbit data is extracted from the following two-line orbital elements,

1 25544U 98067A   18017.54235380  .00016717  00000-0  10270-3 0  9026
2 25544  51.6405  49.7124 0003846  24.7294 335.4043 15.54343027 15089
Epoch (UTC): 17 January 2018 13:00:59
Eccentricity: 0.0003846
inclination: 51.6405°
perigee height: 401 km
apogee height: 406 km
right ascension of ascending node: 49.7124°
argument of perigee: 24.7294°
revolutions per day: 15.54343027
mean anomaly at epoch: 335.4043°
orbit number at epoch: 1508

The dashed part of the orbit path shows where the satellite is in the earth's shadow,  

DLR